map of UBJ home
Great Circle Mapper logo
UBJ - Airport
Location
City:  Ube, Honshu, Japan
Name:Yamaguchi Ube
ICAO / IATA:RJDC / UBJ

Details
Type:Airport (Aerodrome, Airfield)
Use:Public/Civil
Latitude:33°55'48"N (33.930000)
Longitude:131°16'43"E (131.278611)
Datum:WGS 1984
Elevation:23 ft (7 m)
Variation:7.37°W (WMM2015 magnetic declination)
-0.07° annual change
Runways:1
Longest:8200 × 150 ft (2499 × 45.5 m), paved

Time
Time Zone:UTC+9
Local Time:

Weather
METAR:RJDC 251200Z 28005KT 240V320 CAVOK 16/09 Q1019

Related Locations
Nearby:
Farthest:SJRG: 12203 mi / 19639 km
Río Grande [Regional de Río Grande], RS, BR

Find:

   beyond  
but within

Other Information
Maps:
NOTAMs:
Links:
Sources:

  
flag of Japan   

Sectional Chart

Flight Planning
at skyvector.com

Satellite Image

Google Maps Satellite View

 

Copyright © 2004-2015 Karl L. Swartz. All rights reserved.
The Great Circle Mapper name and logo are trademarks of the Great Circle Mapper.
All other trademarks mentioned herein belong to their respective owners.
Please see credits for attibutions and further copyright information.

  Follow gcmap on Facebook Follow gcmap on Twitter Follow gcmap on Google+

hCard Microformat

Geo Microformat